Location: Litvinovka
(48.6667°N, 34.3500°E)
Time: 10:34:02
(UTC+00:00)

Terra - Pass Details

Date: 18 September 2020
Orbit: 701 x 703 km, 98.2° (Epoch: 31 October)

Event Time Altitude Azimuth Distance (km) Brightness Sun altitude
Exits shadow 18:39:59 25° 33° (NNE) 1,421 3.4 -27.0°
Drops below altitude 10° 18:42:37 10° 5° (N) 2,184 4.7 -27.4°
Sets 18:45:06 0° 355° (N) 3,107 5.8 -27.7°
